Погода в Селе Асановский совхоз-техникум

Россия / Удмуртская Республика     56°04′12″N   52°34′29″E
темп.,
°C
ветер,
м/с
пор.,
м/с
влажн.,
%
обл.,
%
осадки,
мм/ч
давл.,
гПа
погр.,
м
24 июня, чт
чт2401:00+18в23945 0.1 101940
04:00+17всв229322 0.1 102030
07:00+20юв228199 0.0 1019237
10:00+24юв226668 0.0 1019599
13:00+27зсз12589 0.0 10181178
16:00+28з23565 0.1 10171256
19:00+27юз356920 0.1 1016173
22:00+24зюз48790 0.3 1015179
25 июня, пт
пт2501:00+18юз2291100 2.9 101515
04:00+18з37925 3.1 1014111
07:00+23сз277737 0.0 1014234
10:00+27ссз236464 0.0 1013568
13:00+31сз35522 0.0 10131408
16:00+32сз364131 0.0 10122424
19:00+28з5116415 0.0 1011333
22:00+24сз36762 0.0 101199
26 июня, сб
сб2601:00+19с23825 0.5 101247
04:00+18сз35895 1.4 101287
07:00+20зсз46794 0.0 1012267
10:00+25сз45649 0.0 1012785
13:00+28ссз46575 0.0 10121409
16:00+30ссз46495 0.0 10111979
19:00+27ссз26635 0.0 1011283
22:00+22ссз22773 0.0 101214
27 июня, вс
вс2701:00+21ссз22775 0.0 101214
04:00+19зсз118048 0.0 101311
07:00+24зсз127018 0.0 1013146
10:00+28з33575 0.0 1013718
13:00+30з33505 0.0 10131546
16:00+31юз445010 0.0 10121562
19:00+23в2487100 3.1 101284
22:00+21юз228767 5.1 101324
28 июня, пн
пн2801:00+21юз118620 0.1 101311
04:00+19ююв11865 0.1 101311
07:00+23ю11785 0.0 1014172
10:00+27ю12655 0.0 1014613
13:00+30ююз115663 1.1 10141169
16:00+31з2251100 1.1 10131533
19:00+29ююз12647 0.1 1012175
22:00+24юв117354 0.1 101211